Location: Chantarel
(45.1638°N, 1.7873°E)
Time: 19:19:30
(UTC+00:00)

USA 307 - Pass Details

Date: 03 March 2021
Orbit: 567 x 577 km, 54.0° (Epoch: 13 April)

Event Time Altitude Azimuth Distance (km) Brightness Sun altitude
Rises 19:55:55 0° 297° (WNW) 2,785 7.7 -24.0°
Reaches altitude 10° 19:58:28 10° 311° (NW) 1,883 6.4 -24.5°
Enters shadow 20:02:01 26° 6° (N) 1,137 4.5 -25.1°
